Change the Weather History Date:

Saturday, November 16, 2013

  Actual Average (KISN) Record (KISN)
Temperature  
Mean Temperature 30 °F 27 °F  
Max Temperature 35 °F 37 °F 65 °F (2001)
Min Temperature 26 °F 16 °F -16 °F (1959)
Degree Days  
Heating Degree Days 34 38  
Month to date heating degree days 542  
Since 1 July heating degree days 1569  
Cooling Degree Days 0 0  
Month to date cooling degree days 0  
Year to date cooling degree days 456  
Moisture  
Dew Point 31 °F    
Average Humidity 99    
Maximum Humidity 100    
Minimum Humidity 87    
Precipitation  
Precipitation 0.16 in 0.02 in 0.56 in (1958)
Month to date precipitation 0.39  
Year to date precipitation 13.49  
Sea Level Pressure  
Sea Level Pressure 29.31 in    
Wind  
Wind Speed 7 mph (SE)    
Max Wind Speed 17 mph    
Max Gust Speed 24 mph    
Visibility 7 miles    
Events Rain , Snow    
T = Trace of Precipitation, MM = Missing Value Source: NWS Daily Summary

Daily Weather History Graph

Daily Weather History Graph

Search for Another Location

Airport or City:

Trip Planner

Search our weather history database for the weather conditions in past years. The results will help you decide how hot, cold, wet, or windy it might be!

Date:

Astronomy

Nov. 16, 2013 Rise Set
Actual Time 8:04 AM CST 5:11 PM CST
Civil Twilight 7:29 AM CST 5:45 PM CST
Nautical Twilight 6:51 AM CST 6:24 PM CST
Astronomical Twilight 6:13 AM CST 7:01 PM CST
Moon 4:50 PM CST (11/16) 6:58 AM CST (11/16)
Length of Visible Light 10h 16m
Length of Day
9h 06m
Waxing Gibbous, 99% of the Moon is Illuminated
Nov 16
Waxing Gibbous
Nov 17
Full
Nov 25
Last Quarter
Dec 2
New
Dec 9
First Quarter

Hourly Weather History & Observations

Time (CST) Temp. Windchill Dew Point Humidity Pressure Visibility Wind Dir Wind Speed Gust Speed Precip Events Conditions
12:15 AM 32.0 °F 24.2 °F 28.4 °F 87% 29.29 in 10.0 mi West 9.2 mph - N/A   Unknown
12:35 AM 32.0 °F 24.8 °F 28.4 °F 87% 29.29 in 10.0 mi West 8.1 mph - N/A   Unknown
12:55 AM 32.0 °F 25.6 °F 28.4 °F 87% 29.29 in 10.0 mi West 6.9 mph - N/A   Unknown
1:15 AM 32.0 °F 25.6 °F 28.4 °F 87% 29.28 in 10.0 mi West 6.9 mph - N/A   Unknown
1:35 AM 32.0 °F 24.8 °F 28.4 °F 87% 29.28 in 10.0 mi WNW 8.1 mph - N/A   Unknown
1:55 AM 32.0 °F 25.6 °F 30.2 °F 93% 29.29 in 10.0 mi West 6.9 mph - N/A   Unknown
2:15 AM 30.2 °F 24.3 °F 30.2 °F 100% 29.29 in 10.0 mi West 5.8 mph - N/A   Unknown
2:35 AM 30.2 °F 22.6 °F 30.2 °F 100% 29.29 in 10.0 mi West 8.1 mph - N/A   Unknown
2:55 AM 30.2 °F 26.7 °F 30.2 °F 100% 29.28 in 10.0 mi WSW 3.5 mph - N/A   Unknown
3:15 AM 30.2 °F - 30.2 °F 100% 29.29 in 10.0 mi Calm Calm - N/A   Unknown
3:35 AM 30.2 °F - 30.2 °F 100% 29.28 in 10.0 mi Calm Calm - N/A   Unknown
3:55 AM 30.2 °F 25.4 °F 30.2 °F 100% 29.28 in 10.0 mi SSW 4.6 mph - N/A   Unknown
4:15 AM 30.2 °F - 30.2 °F 100% 29.28 in 10.0 mi Calm Calm - N/A   Unknown
4:35 AM 30.2 °F 25.4 °F 30.2 °F 100% 29.28 in 10.0 mi South 4.6 mph - N/A   Unknown
4:55 AM 32.0 °F 28.7 °F 32.0 °F 100% 29.28 in 10.0 mi SW 3.5 mph - N/A   Unknown
5:15 AM 32.0 °F 28.7 °F 32.0 °F 100% 29.28 in 10.0 mi West 3.5 mph - N/A   Unknown
5:35 AM 32.0 °F - 32.0 °F 100% 29.28 in 9.0 mi Calm Calm - N/A   Unknown
5:55 AM 30.2 °F - 30.2 °F 100% 29.28 in 10.0 mi Calm Calm - N/A   Unknown
6:15 AM 30.2 °F 26.7 °F 30.2 °F 100% 29.28 in 10.0 mi SE 3.5 mph - N/A   Unknown
6:35 AM 28.4 °F - 28.4 °F 100% 29.28 in 10.0 mi Calm Calm - N/A   Unknown
6:55 AM 28.4 °F - 28.4 °F 100% 29.27 in 10.0 mi Calm Calm - N/A   Unknown
7:15 AM 28.4 °F 24.6 °F 28.4 °F 100% 29.28 in 10.0 mi SSE 3.5 mph - N/A   Unknown
7:35 AM 30.2 °F 25.4 °F 30.2 °F 100% 29.28 in 10.0 mi South 4.6 mph - N/A   Unknown
7:55 AM 32.0 °F 26.4 °F 32.0 °F 100% 29.29 in 10.0 mi South 5.8 mph - N/A   Unknown
8:15 AM 32.0 °F 27.5 °F 32.0 °F 100% 29.29 in 8.0 mi SSW 4.6 mph - N/A   Unknown
8:35 AM 32.0 °F - 32.0 °F 100% 29.29 in 10.0 mi Calm Calm - N/A   Unknown
8:55 AM 32.0 °F - 32.0 °F 100% 29.29 in 10.0 mi Calm Calm - N/A   Unknown
9:15 AM 32.0 °F 28.7 °F 32.0 °F 100% 29.29 in 10.0 mi SE 3.5 mph - N/A   Unknown
9:35 AM 32.0 °F 28.7 °F 32.0 °F 100% 29.29 in 10.0 mi East 3.5 mph - N/A   Unknown
9:55 AM 32.0 °F 28.7 °F 32.0 °F 100% 29.29 in 10.0 mi SE 3.5 mph - N/A   Unknown
10:15 AM 32.0 °F 28.7 °F 32.0 °F 100% 29.30 in 10.0 mi South 3.5 mph - N/A   Unknown
10:35 AM 32.0 °F 27.5 °F 32.0 °F 100% 29.29 in 9.0 mi South 4.6 mph - N/A   Unknown
10:55 AM 33.8 °F 27.7 °F 33.8 °F 100% 29.29 in 7.0 mi South 6.9 mph - N/A   Unknown
11:15 AM 33.8 °F 28.6 °F 33.8 °F 100% 29.30 in 7.0 mi SSW 5.8 mph - N/A   Unknown
11:35 AM 35.6 °F 30.7 °F 35.6 °F 100% 29.30 in 6.0 mi SSW 5.8 mph - N/A Rain Light Rain
11:55 AM 35.6 °F 31.7 °F 35.6 °F 100% 29.29 in 5.0 mi South 4.6 mph - N/A Rain Light Rain
12:15 PM 35.6 °F 32.8 °F 35.6 °F 100% 29.29 in 5.0 mi South 3.5 mph - N/A Rain Light Rain
12:35 PM 35.6 °F 30.7 °F 35.6 °F 100% 29.29 in 5.0 mi South 5.8 mph - N/A   Mist
12:55 PM 35.6 °F 32.8 °F 35.6 °F 100% 29.29 in 5.0 mi South 3.5 mph - N/A   Mist
1:15 PM 35.6 °F 31.7 °F 35.6 °F 100% 29.28 in 8.0 mi SSW 4.6 mph - N/A   Unknown
1:35 PM 35.6 °F 31.7 °F 35.6 °F 100% 29.28 in 5.0 mi South 4.6 mph - N/A Rain Light Rain
1:55 PM 35.6 °F 32.8 °F 35.6 °F 100% 29.28 in 5.0 mi South 3.5 mph - N/A   Mist
2:15 PM 35.6 °F 32.8 °F 35.6 °F 100% 29.28 in 4.0 mi SSE 3.5 mph - N/A   Mist
2:35 PM 35.6 °F 32.8 °F 35.6 °F 100% 29.28 in 3.0 mi East 3.5 mph - N/A   Mist
2:55 PM 35.6 °F 30.7 °F 35.6 °F 100% 29.28 in 3.0 mi East 5.8 mph - N/A   Unknown
3:15 PM 35.6 °F 29.9 °F 35.6 °F 100% 29.28 in 2.5 mi ENE 6.9 mph - N/A Rain Light Rain
3:35 PM 33.8 °F 27.7 °F 33.8 °F 100% 29.28 in 2.5 mi ENE 6.9 mph - N/A Rain Light Rain
3:55 PM 32.0 °F 24.8 °F 32.0 °F 100% 29.29 in 1.2 mi ENE 8.1 mph - 0.01 in Rain Light Rain
4:15 PM 32.0 °F 24.2 °F 32.0 °F 100% 29.29 in 1.0 mi ENE 9.2 mph - N/A Rain Light Rain
4:35 PM 32.0 °F 24.8 °F 32.0 °F 100% 29.30 in 1.0 mi East 8.1 mph - 0.01 in Snow Light Snow
4:55 PM 32.0 °F 24.8 °F 32.0 °F 100% 29.31 in 1.0 mi East 8.1 mph - 0.07 in Snow Light Snow
5:15 PM 32.0 °F 23.6 °F 32.0 °F 100% 29.31 in 1.5 mi East 10.4 mph - N/A Snow Light Snow
5:35 PM 32.0 °F 22.1 °F 32.0 °F 100% 29.32 in 2.0 mi East 13.8 mph - N/A Snow Light Snow
5:55 PM 32.0 °F 23.6 °F 32.0 °F 100% 29.32 in 2.5 mi East 10.4 mph - N/A Snow Light Snow
6:15 PM 32.0 °F 23.0 °F 32.0 °F 100% 29.33 in 2.0 mi East 11.5 mph - N/A Snow Light Snow
6:35 PM 32.0 °F 23.6 °F 32.0 °F 100% 29.33 in 2.5 mi East 10.4 mph - 0.01 in Snow Light Snow
6:55 PM 32.0 °F 23.0 °F 32.0 °F 100% 29.34 in 3.0 mi ENE 11.5 mph - 0.01 in Rain Light Rain
7:15 PM 32.0 °F 22.1 °F 32.0 °F 100% 29.34 in 2.5 mi East 13.8 mph - N/A Snow Light Snow
7:35 PM 32.0 °F 22.5 °F 32.0 °F 100% 29.35 in 2.5 mi East 12.7 mph - 0.01 in Snow Light Snow
7:55 PM 32.0 °F 22.1 °F 32.0 °F 100% 29.35 in 3.0 mi East 13.8 mph 19.6 mph 0.01 in Rain Light Rain
8:15 PM 32.0 °F 20.8 °F 32.0 °F 100% 29.36 in 4.0 mi East 17.3 mph 20.7 mph N/A Snow Light Snow
8:35 PM 30.2 °F 18.5 °F 30.2 °F 100% 29.37 in 5.0 mi East 17.3 mph - N/A Rain Light Freezing Rain
8:55 PM 30.2 °F 18.9 °F 30.2 °F 100% 29.37 in 3.0 mi East 16.1 mph 23.0 mph N/A Rain Light Freezing Rain
9:15 PM 28.4 °F 16.2 °F 28.4 °F 100% 29.38 in 3.0 mi East 17.3 mph 20.7 mph N/A Snow Light Snow
9:35 PM 28.4 °F 16.6 °F 28.4 °F 100% 29.39 in 5.0 mi East 16.1 mph 24.2 mph N/A   Mist
9:55 PM 28.4 °F 16.2 °F 28.4 °F 100% 29.40 in 10.0 mi East 17.3 mph 24.2 mph N/A   Unknown
10:15 PM 28.4 °F 16.2 °F 28.4 °F 100% 29.40 in 10.0 mi East 17.3 mph 23.0 mph N/A   Unknown
10:35 PM 28.4 °F 17.5 °F 28.4 °F 100% 29.41 in 5.0 mi East 13.8 mph - N/A Rain Light Freezing Rain
10:55 PM 28.4 °F 17.5 °F 28.4 °F 100% 29.42 in 5.0 mi ENE 13.8 mph - N/A Snow Light Snow
11:15 PM 26.6 °F 14.7 °F 26.6 °F 100% 29.42 in 3.0 mi ENE 15.0 mph - 0.02 in Snow Light Snow
11:35 PM 26.6 °F 15.7 °F 26.6 °F 100% 29.43 in 3.0 mi ENE 12.7 mph - 0.04 in Snow Light Snow
11:55 PM 26.6 °F 14.7 °F 26.6 °F 100% 29.44 in 4.0 mi ENE 15.0 mph 20.7 mph 0.06 in Snow Light Snow